Regional Weather Roundup
Issued by NWS

Home | Current Version | Previous Version | Graphics & Text | Print | Product List | Glossary On
Versions: 1 2 3 4 5 6 7 8 9 10 11 12 13 14 15 16 17 18 19 20 21 22 23 24 25 26 27 28 29 30 31 32 33 34 35 36 37 38 39 40 41 42 43 44 45 46 47 48 49 50
000
ASUS45 KBOU 120110
RWRCO

WEATHER ROUNDUP FOR COLORADO
NATIONAL WEATHER SERVICE DENVER/BOULDER CO
700 PM MDT FRI JUL 11 2014

NOTE: "FAIR" INDICATES FEW OR NO CLOUDS BELOW 12000 FEET WITH NO
SIGNIFICANT WEATHER AND/OR OBSTRUCTIONS TO VISIBILITY.

COZ001>005-013-030-031-120200-
...NORTHWEST COLORADO...

CITY           SKY/WX    TMP DP  RH WIND       PRES   REMARKS
CRAIG          MOSUNNY   76  57  51 NE6       30.13F
HAYDEN         MOSUNNY   75  52  43 SE12      30.17F
MEEKER         MOSUNNY   84  48  28 NW10      30.13F
MOUNT WERNER   NOT AVBL
STEAMBOAT SPGS MOSUNNY   74  52  45 E9        30.20F
WALDEN         CLOUDY    70  46  43 SE14      30.32S
$$

COZ006>008-011-120200-
...WEST CENTRAL VALLEYS...

CITY           SKY/WX    TMP DP  RH WIND       PRES   REMARKS
GRAND JUNCTION MOSUNNY   88  55  32 SW10      30.00F
MONTROSE       MOSUNNY   83  49  30 E22G29    30.10F
EAGLE          PTSUNNY   81  48  32 S8        30.20S
RIFLE          PTSUNNY   75  58  55 NE6       30.10R
DELTA          MOSUNNY   92  48  22 W7        30.05R
NUCLA          MOSUNNY   90  34  13 SW8G16    30.12S
$$

COZ017>023-064>068-120200-
...SOUTHWEST COLORADO...

CITY           SKY/WX    TMP DP  RH WIND       PRES   REMARKS
DURANGO        MOSUNNY   86  46  24 N9        30.16R
CORTEZ         SUNNY     89  42  19 W14       30.11R
PAGOSA SPRINGS MOSUNNY   78  41  26 NE8       30.26S THUNDER
TELLURIDE      MOSUNNY   73  45  35 S6        30.38F
WOLF CREEK PAS NOT AVBL
$$

COZ009-010-012-014-032>034-037-058>063-120200-
...CENTRAL COLORADO...

CITY           SKY/WX    TMP DP  RH WIND       PRES   REMARKS
ASPEN          CLOUDY    69  51  52 SE15G23   30.31R
BUENA VISTA    PTSUNNY   68  49  51 W15G21    30.36R
COPPER MTN     LGT RAIN  54  39  58 S24       30.68R
BERTHOUD PASS  FAIR      46  34  61 MISG      30.72R
COTTONWOOD PAS PTSUNNY   63  45  51 NW13G29   30.50R
GUNNISON       CLOUDY    61  52  72 CALM      30.37F
KREMMLING      MOSUNNY   72  48  43 SE7       30.30S
LEADVILLE      LGT RAIN  52  50  93 NE8       30.53R
MONARCH PASS   PTSUNNY   55  43  62 W13G21    30.77R
SALIDA         PTSUNNY  N/A N/A N/A NW9       30.37R
SUNLIGHT       TSTM      54  50  87 CALM      30.56S
WILKERSON PASS PTSUNNY   55  43  62 CALM      30.64S
$$

COZ069>075-120200-
...SAN LUIS VALLEY/SANGRE DE CRISTO MOUNTAINS...

CITY           SKY/WX    TMP DP  RH WIND       PRES   REMARKS
ALAMOSA        CLOUDY    67  49  52 E16       30.30R
LA VETA PASS   TSTM      54  45  71 NW7       30.54R
SAGUACHE       PTSUNNY   72  46  40 CALM      30.34R
$$

COZ035-036-038>040-120200-
...NORTHERN COLORADO FRONT RANGE...

CITY           SKY/WX    TMP DP  RH WIND       PRES   REMARKS
DENVER INTL AP CLOUDY    69  63  81 S13       30.17S
DMNS CITY PARK   N/A     71  63  76 SW7       30.18R
AURORA         PTSUNNY   68  64  87 S8        30.20S
FRONT RANGE AP PTSUNNY   70  64  83 S6        30.19
ERIE MUNI ARPT CLOUDY    73  60  61 SW3       30.15S
BOULDER MUN AP CLOUDY    72  61  68 W6        30.15F
CENTENNIAL     CLOUDY    67  61  81 S12       30.22S
BROOMFIELD     PTSUNNY   72  63  73 S5        30.20S
FORT COLLINS   CLOUDY    70  63  78 W8        30.17R
LONGMONT       CLOUDY    74  62  66 W8        30.17S
$$

COZ041-046-047-076>085-087-088-120200-
...PIKES PEAK/PALMER DIVIDE AND SOUTHERN FOOTHILLS...

CITY           SKY/WX    TMP DP  RH WIND       PRES   REMARKS
COLO. SPRINGS  CLOUDY    71  55  56 N13       30.23R
A. F. ACADEMY  CLOUDY    72  51  47 N10       30.26R
ELLICOTT       TSTM      67  54  63 NE21      30.18R
FALCON         CLOUDY    64  56  74 N8        30.30R
FORT CARSON    CLOUDY    72  58  59 N13       30.18R
LIMON          CLOUDY    75  53  46 NW24G37   30.15R
MONUMENT HILL  LGT RAIN  66  48  52 NW7       30.30R
TRINIDAD       PTSUNNY   87  49  26 W9        30.11R
$$

COZ042>045-048>051-090-091-120200-
...NORTHEAST COLORADO...

CITY           SKY/WX    TMP DP  RH WIND       PRES   REMARKS
GREELEY ARPT   NOT AVBL
AKRON          CLOUDY    67  60  78 N22       30.10R
BURLINGTON     MOSUNNY   88  50  27 S16G28    29.99R
WRAY             N/A     85  68  55 NE21G26   29.96S
STERLING       CLOUDY    68  66  94 S5        30.08R
HOLYOKE        MOSUNNY   82  66  57 NE14      30.01R
FORT MORGAN    CLOUDY    70  61  74 NE17      30.14R
$$

COZ086-089-092>099-120200-
...SOUTHEAST COLORADO...

CITY           SKY/WX    TMP DP  RH WIND       PRES   REMARKS
PUEBLO         CLOUDY    73  63  70 NE9       30.08R
LA JUNTA       MOSUNNY   96  49  20 S15G31    29.96R
LAMAR          SUNNY     96  46  18 S26G32    29.94R
SPRINGFIELD      N/A     88  44  21 S25G33    30.06R
$$


USA.gov is the U.S. government's official web portal to all federal, state and local government web resources and services.